Theta_e
296 298 301 298 297 298 299 299 299 298 297 296 294 295 294 294 296 296 295 295 296 296 297 296 296 296 295 295 295 296 297 296 299 299 300 309 306 305 306 306 306 304 305
295 297 299 297 296 296 296 297 297 297 296 297 296 296 295 295 294 294 294 293 293 293 293 294 294 294 293 293 293 293 293 294 294 292 297 297 302 301 299 305 302 305 304
294 295 298 296 296 295 296 296 295 295 296 296 296 295 295 294 293 292 292 292 291 292 292 292 292 292 292 290 291 291 290 290 292 293 290 288 289 290 302 297 302 298 300
294 294 295 296 295 295 296 296 296 296 297 298 296 294 292 290 291 291 291 291 291 290 290 290 290 290 290 289 289 289 290 289 288 290 289 291 290 285 286 294 294 295 293
292 292 293 292 293 294 294 293 293 294 295 295 294 292 291 291 292 291 290 290 290 289 289 289 289 288 288 288 288 288 287 288 287 287 287 287 287 288 286 283 286 289 291
291 291 290 290 290 291 292 293 291 291 293 292 292 292 291 290 290 290 289 289 289 288 288 288 288 288 287 286 287 287 287 286 286 287 286 285 283 283 284 282 283 284 286
289 288 287 287 288 289 290 290 290 289 291 291 291 291 291 290 289 289 288 288 287 286 286 287 287 286 286 286 286 287 286 286 285 285 285 285 285 285 284 283 282 282 284
289 287 287 287 288 289 289 289 289 289 289 290 289 290 290 289 289 289 287 286 286 285 286 286 286 285 285 285 285 285 285 285 285 284 285 285 285 285 285 283 281 279 280
288 287 287 288 288 288 289 289 289 289 289 289 289 289 289 289 288 288 287 285 285 284 284 284 283 283 283 283 282 283 283 283 283 283 283 283 283 284 284 284 283 280 276
288 287 287 287 288 289 289 289 289 288 288 289 289 288 288 288 287 286 285 284 284 283 283 282 282 282 281 281 281 281 281 280 281 281 280 280 281 281 281 281 282 282 280
288 287 287 287 288 288 288 288 288 288 288 288 288 288 287 286 285 284 283 283 283 281 281 280 280 280 279 280 279 279 279 278 278 279 278 278 279 278 278 279 279 278 279
289 288 287 287 287 287 288 287 288 288 288 288 288 286 285 284 283 282 282 282 281 280 279 279 279 278 278 278 277 276 277 276 276 276 276 277 277 276 277 277 277 277 277
289 288 287 286 287 287 287 288 288 288 288 287 286 284 283 282 281 281 280 280 279 279 279 278 277 276 276 276 276 275 275 275 276 276 276 276 276 275 276 275 275 275 275
289 288 287 287 287 287 287 287 287 287 287 286 285 283 282 281 281 280 279 278 278 277 276 276 276 275 275 275 274 274 274 275 275 276 276 276 275 275 274 274 274 274 273
289 288 287 287 287 287 287 287 287 287 286 285 283 282 281 280 279 278 277 276 276 275 275 274 274 274 274 274 274 274 274 274 274 275 275 275 275 276 275 274 274 273 272
290 289 288 287 286 286 286 286 286 285 285 283 282 281 280 278 277 276 275 275 274 274 274 273 273 272 273 274 275 275 274 273 273 273 274 274 274 274 275 276 276 275 272
290 289 288 287 286 286 286 285 285 284 283 281 280 278 278 276 276 275 274 273 272 272 272 272 272 271 271 274 275 275 273 272 272 272 272 272 273 273 272 274 275 275 275
290 289 289 288 287 287 286 285 284 281 281 279 277 277 277 275 274 273 272 272 272 271 271 271 270 270 270 273 274 274 272 272 272 272 272 271 272 272 273 272 272 273 273
292 291 290 288 287 285 285 283 281 279 279 278 276 276 275 273 272 270 271 271 270 270 269 270 269 268 268 271 272 273 271 271 271 272 272 272 272 274 276 274 273 273 274
291 289 289 287 285 284 283 280 279 278 277 277 276 275 273 271 270 270 269 270 269 269 269 269 268 267 267 269 271 272 272 270 271 272 273 275 275 276 277 274 273 272 273
286 287 286 284 284 282 280 279 278 277 277 276 274 273 272 270 270 269 269 268 267 268 267 266 268 267 268 268 271 274 273 272 271 272 272 273 276 277 279 278 274 273 276
283 282 281 281 279 280 280 278 277 278 276 274 272 270 269 269 268 266 267 266 266 265 266 266 267 269 270 271 273 274 275 275 272 272 273 274 277 276 276 275 275 276 275
280 280 280 278 278 278 279 277 277 274 273 271 269 267 267 267 267 266 266 266 267 266 266 267 267 268 270 271 273 273 274 275 273 274 275 275 274 273 271 272 273 271 268
279 279 278 277 276 277 278 278 275 273 269 268 267 266 265 266 265 267 267 267 267 267 266 266 266 268 269 270 271 271 272 274 274 274 272 272 271 271 270 268 269 268 268
279 278 278 277 277 276 276 274 273 270 269 268 267 267 267 266 267 267 268 267 268 267 265 266 268 268 267 269 272 273 272 273 274 272 269 266 266 265 266 266 266 267 267
279 277 277 277 277 275 274 272 270 269 269 268 267 268 268 266 266 266 266 269 270 271 271 272 271 270 272 272 273 274 274 275 274 268 265 264 265 264 265 265 265 266 266
Wind_Speed
4 5 7 8 9 8 9 9 10 9 7 7 8 9 9 9 10 10 14 14 13 13 11 8 9 9 10 11 11 9 9 8 11 6 6 3 5 3 6 3 5 6 5
8 7 8 8 8 9 8 9 8 8 6 6 7 7 9 10 10 9 12 14 15 14 12 11 10 11 8 11 11 10 7 6 9 7 6 5 1 7 7 2 3 5 6
11 9 10 10 10 9 8 9 9 9 9 12 10 10 11 9 9 9 9 11 14 14 12 12 10 10 9 8 9 10 11 7 7 9 6 5 5 11 1 7 3 9 4
11 10 11 11 11 9 8 11 12 12 10 10 10 13 10 10 9 9 9 10 14 14 13 12 11 10 7 9 8 9 8 7 7 4 7 5 7 5 7 3 10 8 8
13 13 12 12 12 11 11 12 13 12 10 12 12 10 12 9 8 8 11 11 11 12 12 11 11 10 7 9 10 9 10 7 6 6 6 6 6 8 8 13 8 10 8
14 13 12 12 11 11 11 11 14 14 11 12 13 13 13 11 8 8 7 7 7 8 11 10 9 9 8 8 7 8 9 8 7 6 6 6 6 8 7 11 12 14 11
17 16 15 13 12 12 11 11 12 14 14 14 14 14 14 13 11 9 8 7 7 6 8 8 8 7 8 9 8 7 8 8 8 8 7 6 7 7 8 10 12 13 10
16 16 15 14 14 14 13 14 14 14 13 13 14 12 12 8 8 8 7 6 6 5 6 7 7 8 10 9 9 7 6 7 6 9 7 7 7 7 7 9 11 14 12
18 18 16 14 14 13 13 13 13 13 12 12 11 11 10 10 9 9 7 6 6 5 7 9 8 9 9 9 9 6 7 7 7 8 8 8 7 8 8 8 8 10 15
18 17 16 15 14 13 13 13 13 13 13 12 10 9 10 9 8 7 8 8 7 8 8 8 8 8 9 9 9 7 7 8 7 7 9 9 7 8 8 9 9 9 12
19 18 16 15 14 14 14 13 13 13 12 11 11 10 9 8 8 8 8 7 7 7 7 6 6 7 8 8 8 9 9 9 10 9 10 10 11 8 8 8 8 10 10
18 17 16 15 14 14 14 14 13 12 11 12 11 11 9 8 8 8 7 6 5 4 4 4 6 7 7 8 9 10 10 11 11 11 12 12 10 12 11 8 11 10 11
19 17 17 17 16 15 14 14 13 12 11 12 11 10 9 8 8 7 5 4 2 2 3 4 6 7 8 9 10 10 11 11 12 12 13 13 13 12 10 11 11 10 10
21 19 18 18 17 16 15 15 15 14 13 11 10 10 8 8 7 5 5 3 2 2 4 5 6 7 8 9 9 10 12 12 12 13 13 13 13 13 13 12 13 12 12
22 22 21 18 18 17 16 14 13 12 12 11 9 9 9 7 6 5 4 3 1 3 4 6 6 7 7 6 10 11 12 13 14 13 14 13 14 21 20 13 13 13 12
23 22 20 19 20 19 17 15 14 13 12 11 10 9 9 8 6 5 4 3 2 3 4 5 6 8 6 12 15 14 13 14 14 13 13 13 15 15 23 24 26 22 15
23 22 24 21 19 19 17 16 15 13 12 11 10 9 8 8 7 6 4 3 2 3 4 6 7 8 9 14 16 17 12 13 12 14 14 13 11 14 14 19 24 22 25
16 18 17 18 18 18 17 15 14 13 12 11 10 9 8 8 7 5 4 2 1 2 4 6 7 8 8 14 16 18 13 11 13 12 13 14 14 14 17 16 16 17 17
13 15 16 16 16 17 17 16 15 14 12 12 11 10 9 7 7 4 3 2 1 3 4 6 6 8 8 14 15 15 10 10 12 13 13 14 16 22 27 18 17 17 16
8 11 15 14 17 17 16 17 15 14 13 12 11 10 9 7 6 5 4 2 2 4 5 6 6 8 8 12 14 14 8 10 10 11 12 19 21 27 28 19 17 18 17
9 11 14 14 14 14 16 15 14 14 12 11 11 10 9 7 6 5 4 3 3 4 5 7 6 7 7 7 14 16 9 9 10 10 11 10 25 29 29 29 17 19 23
10 10 10 10 11 13 14 14 14 11 12 12 11 9 8 6 6 5 4 4 4 5 5 5 5 5 5 9 12 16 18 19 11 12 11 12 27 32 31 24 29 29 25
9 8 10 11 8 10 11 13 11 13 12 11 9 8 7 6 5 5 5 4 5 4 4 4 5 5 5 5 14 15 20 20 14 11 18 28 27 26 18 22 26 20 9
8 5 9 9 9 8 7 7 12 12 12 10 9 7 6 7 6 5 5 4 4 4 4 5 6 6 5 5 5 8 9 14 12 14 9 16 19 19 18 12 13 10 10
6 8 9 9 10 9 9 9 12 13 11 9 8 8 6 7 6 6 5 5 5 5 4 5 6 7 7 6 14 15 10 9 12 13 8 8 8 9 10 10 10 10 10
7 7 7 6 7 10 10 10 11 12 12 10 8 7 6 6 6 5 5 11 12 13 15 16 13 7 14 17 18 19 21 21 22 8 6 8 8 9 10 10 11 11 12
Wind_Direction
133 116 101 95 94 89 95 93 97 94 93 91 93 87 91 84 76 67 65 59 57 60 58 56 50 55 47 38 32 18 20 22 357 355 343 304 70 68 9 29 19 34 18
159 136 125 110 100 102 104 106 106 104 96 87 92 94 96 87 84 77 71 66 63 54 53 50 44 41 44 41 34 31 17 27 14 2 309 353 219 28 322 19 45 1 12
161 151 145 127 121 114 115 114 108 101 99 105 105 103 103 98 90 80 73 65 67 64 61 59 55 47 40 36 28 20 26 11 24 32 8 344 349 336 16 339 1 349 355
159 151 146 136 121 112 106 104 103 103 108 117 111 100 95 94 85 79 75 63 57 54 52 53 50 47 48 46 26 21 15 4 13 5 17 354 318 325 313 341 327 303 345
162 153 141 131 123 126 117 112 108 102 96 102 103 101 103 101 102 97 92 86 74 59 49 43 41 42 41 32 28 22 16 9 356 358 349 318 319 279 295 307 312 305 306
159 145 135 133 124 122 118 113 111 104 101 101 101 102 105 104 98 91 81 70 62 57 50 52 50 37 28 30 25 18 16 360 351 348 335 335 326 314 308 301 302 302 308
159 153 152 144 139 132 126 122 118 111 106 103 99 98 99 98 93 86 74 68 60 52 46 46 44 36 27 17 16 13 9 359 343 336 329 318 308 308 301 297 299 300 307
165 163 161 153 146 147 144 136 126 118 114 110 107 103 98 91 89 89 93 87 76 48 46 46 44 41 22 15 4 358 2 345 324 320 320 311 303 302 298 298 304 298 295
171 168 164 162 157 154 149 139 133 125 120 114 109 107 108 107 109 99 88 83 81 72 36 33 31 22 30 3 355 347 353 328 320 316 317 312 309 306 301 295 291 292 300
173 172 171 168 163 158 151 148 143 135 130 124 120 115 115 109 103 100 95 78 64 49 39 18 11 12 15 357 344 339 332 318 322 316 318 310 308 305 300 295 291 286 286
176 173 172 172 167 164 161 155 150 142 140 135 131 127 122 117 110 98 83 72 60 42 36 10 349 358 2 345 337 329 320 321 316 314 311 311 309 301 300 302 297 291 291
176 174 174 173 170 169 167 165 158 154 151 146 141 135 133 122 103 91 84 71 56 41 34 346 342 356 351 337 330 325 324 320 317 315 312 307 309 307 304 299 294 293 296
177 176 178 180 177 176 174 170 165 160 152 148 143 139 129 117 103 99 102 99 80 34 18 352 352 349 340 335 328 323 317 318 313 311 309 306 308 303 301 300 299 299 299
182 182 184 184 182 178 177 174 170 162 159 153 148 141 132 123 124 135 125 110 61 16 3 355 348 342 335 325 317 321 317 313 307 304 301 300 300 300 302 303 301 297 294
188 191 187 184 182 178 178 174 168 157 158 154 148 142 135 134 147 145 132 119 75 11 2 348 340 331 322 315 321 315 311 307 304 303 302 298 300 301 294 290 289 291 293
198 194 187 182 185 179 176 171 165 163 159 154 151 140 148 151 163 152 151 128 58 13 358 337 322 315 310 310 312 310 306 306 304 301 301 301 302 297 299 298 294 288 288
198 194 192 186 184 177 172 168 162 154 159 152 148 147 152 171 171 162 139 102 46 1 334 315 315 309 305 305 311 314 306 303 301 302 303 300 298 298 291 290 292 294 287
198 197 189 183 181 171 165 159 156 155 156 153 148 154 166 175 171 153 134 112 39 328 311 307 301 296 301 308 312 310 307 305 301 300 298 293 292 289 292 288 282 274 270
202 195 186 177 169 165 161 150 151 157 157 159 160 165 172 169 164 146 142 118 305 296 289 282 289 290 294 304 309 314 312 301 294 293 289 288 288 287 288 285 286 284 277
164 159 163 165 167 166 155 151 157 161 168 165 163 161 164 164 156 157 149 164 238 269 277 285 286 278 285 302 308 314 297 292 296 296 296 294 301 304 303 296 287 280 280
139 143 155 163 165 151 150 154 158 175 164 150 147 158 163 152 152 157 164 182 233 264 273 272 276 278 275 283 303 303 305 304 303 301 302 299 302 305 310 312 311 303 303
134 139 140 142 142 155 155 160 171 155 143 143 155 158 147 160 162 150 175 202 222 241 253 268 286 284 285 287 299 309 317 310 306 303 304 304 313 321 318 321 313 310 316
144 146 145 139 148 157 163 160 158 145 143 149 152 148 150 166 160 174 192 211 212 240 274 291 297 297 292 299 303 315 310 311 313 304 312 325 323 323 321 315 317 320 313
154 138 134 148 157 165 165 149 146 144 145 151 150 148 161 174 178 192 200 212 223 239 256 271 280 284 299 296 311 296 295 305 302 316 323 318 323 319 318 315 315 311 306
151 158 167 174 175 165 164 145 150 145 152 149 152 168 180 183 179 204 209 215 225 228 231 252 273 291 291 293 297 305 307 303 308 328 322 318 316 317 316 317 313 308 306
156 168 182 169 166 166 164 156 152 158 154 157 165 176 176 178 191 200 218 231 239 247 256 269 275 274 285 300 299 306 306 317 324 324 315 306 309 310 313 312 309 308 307